This is the latest recevied weather packets stored in our database for station/object M0JUI-1. If no packets are shown the sender has not sent any weather packets the latest 10 day(s).
| Time | Temp. | Humidity | Pressure | Rain* | Wind** | Luminosity | Snow |
|---|---|---|---|---|---|---|---|
| 1777726394 | 16.67° C | 99% | 1015.6 hPa | 0 mm | - | 354 W/m² | - |
| 1777726235 | 17.22° C | 99% | 1015.6 hPa | 0 mm | - | 371 W/m² | - |
| 1777725782 | 18.33° C | 99% | 1015.7 hPa | 0 mm | - | 350 W/m² | - |
| 1777725482 | 17.78° C | 99% | 1015.4 hPa | 0 mm | - | 546 W/m² | - |
| 1777725183 | 17.22° C | 99% | 1015.8 hPa | 0 mm | - | 558 W/m² | - |
| 1777724870 | 17.22° C | 99% | 1015.8 hPa | 0 mm | - | 589 W/m² | - |
| 1777724570 | 16.67° C | 99% | 1015.7 hPa | 0 mm | - | 619 W/m² | - |
| 1777724270 | 17.22° C | 99% | 1015.8 hPa | 0 mm | - | 612 W/m² | - |
| 1777723958 | 16.11° C | 99% | 1015.8 hPa | 0 mm | - | 618 W/m² | - |
| 1777723658 | 16.67° C | 99% | 1016.1 hPa | 0 mm | - | 236 W/m² | - |
| 1777723358 | 16.67° C | 99% | 1016.2 hPa | 0 mm | - | 642 W/m² | - |
| 1777723058 | 16.67° C | 99% | 1016.1 hPa | 0 mm | - | 403 W/m² | - |
| 1777722758 | 16.11° C | 99% | 1016.2 hPa | 0 mm | - | 628 W/m² | - |
| 1777722458 | 17.22° C | 99% | 1016.5 hPa | 0 mm | - | 636 W/m² | - |
| 1777722158 | 16.67° C | 99% | 1016.5 hPa | 0 mm | - | 665 W/m² | - |
| 1777721858 | 16.67° C | 99% | 1016.6 hPa | 0 mm | - | 678 W/m² | - |
| 1777721558 | 16.67° C | 99% | 1016.7 hPa | 0 mm | - | 708 W/m² | - |
| 1777721258 | 16.11° C | 99% | 1016.6 hPa | 0 mm | - | 670 W/m² | - |
| 1777720959 | 16.11° C | 99% | 1016.8 hPa | 0 mm | - | 585 W/m² | - |
| 1777720658 | 15.56° C | 99% | 1016.7 hPa | 0 mm | - | 620 W/m² | - |
| 1777720358 | 15.56° C | 99% | 1016.6 hPa | 0 mm | - | 642 W/m² | - |
| 1777720058 | 15.56° C | 99% | 1016.8 hPa | 0 mm | - | 619 W/m² | - |
| 1777719758 | 15° C | 99% | 1017.1 hPa | 0 mm | - | 642 W/m² | - |
| 1777719458 | 15.56° C | 99% | 1017 hPa | 0 mm | - | 608 W/m² | - |
| 1777719158 | 16.11° C | 99% | 1016.9 hPa | 0 mm | - | 623 W/m² | - |
* Rain latest hour (hover to see other rain measurements)
** Current wind speed in m/s (hover to see current wind gust speed)